This is the latest recevied weather packets stored in our database for station/object N6OIM. If no packets are shown the sender has not sent any weather packets the latest 10 day(s).
| Time | Temp. | Humidity | Pressure | Rain* | Wind** | Luminosity | Snow |
|---|---|---|---|---|---|---|---|
| 1777488810 | 22.78° C | 48% | 1015.7 hPa | 0 mm | - | - | - |
| 1777488206 | 22.78° C | 49% | 1015.9 hPa | 0 mm | - | - | - |
| 1777487894 | 22.78° C | 47% | 1016 hPa | 0 mm | - | - | - |
| 1777487604 | 22.22° C | 50% | 1016 hPa | 0 mm | - | - | - |
| 1777487313 | 22.22° C | 48% | 1016.1 hPa | 0 mm | - | - | - |
| 1777486713 | 22.22° C | 48% | 1016.1 hPa | 0 mm | - | - | - |
| 1777486401 | 22.22° C | 50% | 1016.1 hPa | 0 mm | - | - | - |
| 1777486110 | 21.67° C | 49% | 1016 hPa | 0 mm | - | - | - |
| 1777485798 | 21.67° C | 49% | 1016 hPa | 0 mm | - | - | - |
| 1777485216 | 21.67° C | 50% | 1016.2 hPa | 0 mm | - | - | - |
| 1777484306 | 21.11° C | 52% | 1016.3 hPa | 0 mm | - | - | - |
| 1777483997 | 21.11° C | 50% | 1016.4 hPa | 0 mm | - | - | - |
| 1777483398 | 20.56° C | 51% | 1016.4 hPa | 0 mm | - | - | - |
| 1777483107 | 20.56° C | 51% | 1016.4 hPa | 0 mm | - | - | - |
| 1777482815 | 20.56° C | 52% | 1016.5 hPa | 0 mm | - | - | - |
| 1777482503 | 20° C | 52% | 1016.6 hPa | 0 mm | - | - | - |
| 1777482214 | 20° C | 53% | 1016.5 hPa | 0 mm | - | - | - |
| 1777481306 | 20° C | 56% | 1016.8 hPa | 0 mm | - | - | - |
| 1777480708 | 19.44° C | 57% | 1016.8 hPa | 0 mm | - | - | - |
| 1777480397 | 19.44° C | 58% | 1016.8 hPa | 0 mm | - | - | - |
| 1777480108 | 18.89° C | 57% | 1016.8 hPa | 0 mm | - | - | - |
| 1777479796 | 18.89° C | 55% | 1016.9 hPa | 0 mm | - | - | - |
| 1777479504 | 18.89° C | 56% | 1016.9 hPa | 0 mm | - | - | - |
| 1777479200 | 18.33° C | 55% | 1016.8 hPa | 0 mm | - | - | - |
| 1777478907 | 18.33° C | 57% | 1016.9 hPa | 0 mm | - | - | - |
* Rain latest hour (hover to see other rain measurements)
** Current wind speed in m/s (hover to see current wind gust speed)